• In Netherlands
  • List of Countries
  • For 7 days
  • Water Temperature
  • Satellite Maps
  • Weather Map
  • Weather Widgets
  • user-avatar
    Login

    Hourly Weather Kalat

    Today, 23 July, Sunday

    Time Temperature Precipitation Wind Pressure Humidity
    00:00 +8°C° 0 mm 2 mps 479 mmHg 58%
    01:00 +7°C° 0 mm 2 mps 479 mmHg 60%
    02:00 +7°C° 0 mm 2 mps 478 mmHg 62%
    03:00 +6°C° 0 mm 2 mps 478 mmHg 64%
    04:00 +6°C° 0 mm 2 mps 478 mmHg 65%
    05:00 +6°C° 0 mm 2 mps 477 mmHg 67%
    06:00 +7°C° 0 mm 2 mps 478 mmHg 61%
    07:00 +8°C° 0 mm 2 mps 479 mmHg 56%
    08:00 +9°C° 0 mm 2 mps 480 mmHg 50%
    09:00 +10°C° 0 mm 2 mps 480 mmHg 46%
    10:00 +11°C° 0 mm 3 mps 481 mmHg 41%
    11:00 +13°C° 0 mm 3 mps 482 mmHg 37%
    12:00 +13°C° 0 mm 3 mps 482 mmHg 35%
    13:00 +14°C° 0 mm 4 mps 482 mmHg 34%
    14:00 +15°C° 0 mm 4 mps 482 mmHg 32%
    15:00 +15°C° 0 mm 4 mps 482 mmHg 33%
    16:00 +14°C° 0 mm 4 mps 482 mmHg 34%
    17:00 +14°C° 0 mm 4 mps 482 mmHg 35%
    18:00 +13°C° 0 mm 4 mps 481 mmHg 38%
    19:00 +12°C° 0 mm 4 mps 481 mmHg 42%
    20:00 +11°C° 0 mm 3 mps 480 mmHg 45%
    21:00 +10°C° 0 mm 3 mps 480 mmHg 47%
    22:00 +9°C° 0 mm 2 mps 479 mmHg 49%
    23:00 +8°C° 0 mm 2 mps 479 mmHg 51%

    Tomorrow, 24 July, Monday

    Time Temperature Precipitation Wind Pressure Humidity
    00:00 +8°C° 0 mm 2 mps 479 mmHg 53%
    01:00 +8°C° 0 mm 2 mps 478 mmHg 54%
    02:00 +8°C° 0 mm 1 mps 478 mmHg 56%
    03:00 +8°C° 0 mm 1 mps 477 mmHg 57%
    04:00 +7°C° 0 mm 1 mps 477 mmHg 58%
    05:00 +7°C° 0 mm 1 mps 477 mmHg 59%
    06:00 +7°C° 0 mm 2 mps 478 mmHg 52%
    07:00 +8°C° 0 mm 2 mps 478 mmHg 45%
    08:00 +9°C° 0 mm 2 mps 479 mmHg 38%
    09:00 +12°C° 0 mm 2 mps 480 mmHg 33%
    10:00 +13°C° 0 mm 2 mps 481 mmHg 28%
    11:00 +14°C° 0 mm 3 mps 482 mmHg 24%
    12:00 +14°C° 0 mm 3 mps 482 mmHg 23%
    13:00 +16°C° 0 mm 3 mps 482 mmHg 22%
    14:00 +17°C° 0 mm 4 mps 482 mmHg 22%
    15:00 +17°C° 0 mm 4 mps 482 mmHg 24%
    16:00 +17°C° 0 mm 4 mps 482 mmHg 25%
    17:00 +15°C° 0 mm 4 mps 482 mmHg 27%
    18:00 +14°C° 0 mm 4 mps 481 mmHg 31%
    19:00 +13°C° 0 mm 3 mps 481 mmHg 35%
    20:00 +11°C° 0 mm 3 mps 480 mmHg 39%
    21:00 +11°C° 0 mm 3 mps 480 mmHg 42%
    22:00 +10°C° 0 mm 2 mps 479 mmHg 44%
    23:00 +9°C° 0 mm 2 mps 479 mmHg 46%

    Day after tomorrow, 25 July, Tuesday

    Time Temperature Precipitation Wind Pressure Humidity
    00:00 +9°C° 0 mm 2 mps 479 mmHg 48%
    01:00 +8°C° 0 mm 2 mps 478 mmHg 50%
    02:00 +7°C° 0 mm 2 mps 478 mmHg 52%
    03:00 +7°C° 0 mm 2 mps 477 mmHg 53%
    04:00 +6°C° 0 mm 2 mps 477 mmHg 54%
    05:00 +6°C° 0 mm 2 mps 476 mmHg 56%
    06:00 +7°C° 0 mm 2 mps 477 mmHg 48%
    07:00 +8°C° 0 mm 2 mps 478 mmHg 40%
    08:00 +10°C° 0 mm 2 mps 479 mmHg 33%
    09:00 +12°C° 0 mm 2 mps 480 mmHg 28%
    10:00 +14°C° 0 mm 2 mps 481 mmHg 23%
    11:00 +14°C° 0 mm 3 mps 482 mmHg 18%
    12:00 +16°C° 0 mm 3 mps 482 mmHg 18%
    13:00 +17°C° 0 mm 3 mps 482 mmHg 18%
    14:00 +18°C° 0 mm 4 mps 482 mmHg 17%
    15:00 +18°C° 0 mm 4 mps 482 mmHg 19%
    16:00 +17°C° 0 mm 4 mps 482 mmHg 21%
    17:00 +17°C° 0 mm 4 mps 482 mmHg 22%
    18:00 +15°C° 0 mm 4 mps 481 mmHg 26%
    19:00 +13°C° 0 mm 3 mps 481 mmHg 30%
    20:00 +12°C° 0 mm 3 mps 480 mmHg 34%
    21:00 +12°C° 0 mm 2 mps 480 mmHg 36%
    22:00 +12°C° 0 mm 2 mps 480 mmHg 39%
    23:00 +10°C° 0 mm 2 mps 479 mmHg 42%

    26 July, Wednesday

    Time Temperature Precipitation Wind Pressure Humidity
    00:00 +10°C° 0 mm 1 mps 479 mmHg 43%
    01:00 +10°C° 0 mm 1 mps 478 mmHg 45%
    02:00 +9°C° 0 mm 1 mps 478 mmHg 47%
    03:00 +9°C° 0 mm 1 mps 478 mmHg 47%
    04:00 +8°C° 0 mm 1 mps 477 mmHg 48%
    05:00 +8°C° 0 mm 1 mps 477 mmHg 49%
    06:00 +9°C° 0 mm 1 mps 478 mmHg 42%
    07:00 +10°C° 0 mm 1 mps 479 mmHg 35%
    08:00 +12°C° 0 mm 1 mps 480 mmHg 28%
    09:00 +13°C° 0 mm 2 mps 481 mmHg 24%
    10:00 +15°C° 0 mm 2 mps 482 mmHg 20%
    11:00 +16°C° 0 mm 2 mps 483 mmHg 16%
    12:00 +17°C° 0 mm 3 mps 483 mmHg 15%
    13:00 +18°C° 0 mm 3 mps 483 mmHg 15%
    14:00 +19°C° 0 mm 3 mps 484 mmHg 15%
    15:00 +19°C° 0 mm 4 mps 483 mmHg 17%
    16:00 +19°C° 0 mm 4 mps 483 mmHg 19%
    17:00 +18°C° 0 mm 4 mps 483 mmHg 21%
    18:00 +17°C° 0 mm 4 mps 483 mmHg 25%
    19:00 +16°C° 0 mm 3 mps 482 mmHg 29%
    20:00 +13°C° 0 mm 3 mps 481 mmHg 33%
    21:00 +13°C° 0 mm 2 mps 481 mmHg 36%
    22:00 +13°C° 0 mm 2 mps 481 mmHg 38%
    23:00 +12°C° 0 mm 1 mps 481 mmHg 41%

    27 July, Thursday

    Time Temperature Precipitation Wind Pressure Humidity
    00:00 +11°C° 0 mm 1 mps 480 mmHg 42%
    01:00 +11°C° 0 mm 1 mps 480 mmHg 44%
    02:00 +10°C° 0 mm 1 mps 479 mmHg 45%
    03:00 +9°C° 0 mm 2 mps 479 mmHg 46%
    04:00 +8°C° 0 mm 2 mps 479 mmHg 46%
    05:00 +8°C° 0 mm 2 mps 478 mmHg 47%
    06:00 +9°C° 0 mm 2 mps 479 mmHg 40%
    07:00 +10°C° 0 mm 2 mps 481 mmHg 33%
    08:00 +13°C° 0 mm 2 mps 482 mmHg 27%
    09:00 +14°C° 0 mm 2 mps 482 mmHg 23%
    10:00 +16°C° 0 mm 3 mps 483 mmHg 19%
    11:00 +17°C° 0 mm 3 mps 484 mmHg 15%
    12:00 +18°C° 0 mm 3 mps 484 mmHg 16%
    13:00 +18°C° 0 mm 4 mps 484 mmHg 16%
    14:00 +19°C° 0 mm 4 mps 484 mmHg 17%
    15:00 +19°C° 0 mm 4 mps 484 mmHg 19%
    16:00 +18°C° 0 mm 4 mps 484 mmHg 21%
    17:00 +18°C° 0 mm 4 mps 484 mmHg 24%
    18:00 +17°C° 0 mm 4 mps 483 mmHg 27%
    19:00 +14°C° 0 mm 4 mps 482 mmHg 31%
    20:00 +13°C° 0 mm 3 mps 482 mmHg 35%
    21:00 +12°C° 0 mm 3 mps 481 mmHg 37%
    22:00 +11°C° 0 mm 3 mps 481 mmHg 40%
    23:00 +10°C° 0 mm 2 mps 481 mmHg 42%

    28 July, Friday

    Time Temperature Precipitation Wind Pressure Humidity
    00:00 +10°C° 0 mm 2 mps 480 mmHg 44%
    01:00 +9°C° 0 mm 2 mps 480 mmHg 45%
    02:00 +9°C° 0 mm 3 mps 479 mmHg 47%
    03:00 +8°C° 0 mm 3 mps 479 mmHg 48%
    04:00 +8°C° 0 mm 3 mps 479 mmHg 49%
    05:00 +7°C° 0 mm 3 mps 478 mmHg 51%
    06:00 +8°C° 0 mm 3 mps 479 mmHg 45%
    07:00 +10°C° 0 mm 3 mps 480 mmHg 40%
    08:00 +11°C° 0 mm 3 mps 481 mmHg 35%
    09:00 +12°C° 0 mm 3 mps 482 mmHg 32%
    10:00 +13°C° 0 mm 3 mps 483 mmHg 30%
    11:00 +16°C° 0 mm 3 mps 484 mmHg 27%
    12:00 +17°C° 0 mm 3 mps 484 mmHg 26%
    13:00 +17°C° 0 mm 4 mps 484 mmHg 26%
    14:00 +18°C° 0 mm 4 mps 484 mmHg 25%
    15:00 +18°C° 0 mm 4 mps 484 mmHg 27%
    16:00 +18°C° 0 mm 4 mps 484 mmHg 29%
    17:00 +17°C° 0 mm 4 mps 484 mmHg 30%
    18:00 +15°C° 0 mm 4 mps 483 mmHg 33%
    19:00 +14°C° 0 mm 4 mps 482 mmHg 36%
    20:00 +12°C° 0 mm 3 mps 482 mmHg 39%
    21:00 +11°C° 0 mm 3 mps 481 mmHg 40%
    22:00 +11°C° 0 mm 3 mps 481 mmHg 41%
    23:00 +10°C° 0 mm 3 mps 481 mmHg 42%
    Show more